Regional Weather Roundup
Issued by NWS

Home | Current Version | Previous Version | Text Only | Print | Product List | Glossary Off
Versions: 1 2 3 4 5 6 7 8 9 10 11 12 13 14 15 16 17 18 19 20 21 22 23 24 25 26 27 28 29 30 31 32 33 34 35 36 37 38 39 40 41 42 43 44 45 46 47 48 49 50

000
ASUS43 KBIS 252101
RWRND

NORTH DAKOTA REGIONAL WEATHER ROUNDUP
NATIONAL WEATHER SERVICE BISMARCK ND
400 PM CDT SAT APR 25 2015

NOTE: "FAIR" INDICATES FEW OR NO CLOUDS BELOW 12,000 FEET WITH NO
SIGNIFICANT WEATHER AND/OR OBSTRUCTIONS TO VISIBILITY.


NDZ001>003-009>011-017-252200-
NORTHWEST NORTH DAKOTA

CITY           SKY/WX    TMP DP  RH WIND       PRES   REMARKS
WILLISTON      CLOUDY    54  43  66 SE14G25   29.74F
MINOT          CLOUDY    57  39  51 E16       29.80S
MINOT AFB      CLOUDY    57  42  58 SE18      29.79S
$$

NDZ018>021-031>035-040>046-252200-
SOUTHWEST NORTH DAKOTA

CITY           SKY/WX    TMP DP  RH WIND       PRES   REMARKS
BISMARCK       CLOUDY    50  42  74 SE16      29.82S
DICKINSON      CLOUDY    47  42  83 SE17      29.75R
GARRISON         N/A     55  42  61 SE16      29.79S
HETTINGER ARPT CLOUDY    47  43  86 SE13      29.76F FOG
$$

NDZ004>008-012>016-024-026-027-054-252200-
NORTHEAST NORTH DAKOTA

CITY           SKY/WX    TMP DP  RH WIND       PRES   REMARKS
GRAND FORKS    PTSUNNY   61  38  42 SE7G16    29.87S
GRND FRKS AFB  MOSUNNY   61  38  42 S8G18     29.88S
DEVILS LAKE    CLOUDY    54  39  58 SE15      29.86S
$$

NDZ022-023-025-028>030-036>039-047>053-252200-
SOUTHEAST NORTH DAKOTA

CITY           SKY/WX    TMP DP  RH WIND       PRES   REMARKS
FARGO          SUNNY     59  39  47 S12       29.87F
JAMESTOWN      CLOUDY    48  40  73 SE14      29.86S
$$




USA.gov is the U.S. government's official web portal to all federal, state and local government web resources and services.